This is the latest recevied weather packets stored in our database for station/object KK4MOR. If no packets are shown the sender has not sent any weather packets the latest 10 day(s).
| Time | Temp. | Humidity | Pressure | Rain* | Wind** | Luminosity | Snow |
|---|---|---|---|---|---|---|---|
| 1777270536 | 13.89° C | 91% | 1012.6 hPa | 0 mm | - | - | - |
| 1777269636 | 13.89° C | 90% | 1012.4 hPa | 0 mm | - | - | - |
| 1777268732 | 14.44° C | 89% | 1012.5 hPa | 0 mm | - | - | - |
| 1777267835 | 14.44° C | 88% | 1012.5 hPa | 0 mm | - | - | - |
| 1777266927 | 15° C | 88% | 1012.5 hPa | 0 mm | - | - | - |
| 1777266026 | 15° C | 87% | 1012.5 hPa | 0 mm | - | - | - |
| 1777265124 | 15.56° C | 86% | 1012.5 hPa | 0 mm | - | - | - |
| 1777264227 | 15.56° C | 86% | 1012.1 hPa | 0 mm | - | - | - |
| 1777263322 | 15.56° C | 85% | 1012.2 hPa | 0 mm | - | - | - |
| 1777262422 | 16.11° C | 85% | 1012.2 hPa | 0 mm | - | - | - |
| 1777261523 | 16.11° C | 85% | 1012.2 hPa | 0 mm | - | - | - |
| 1777260629 | 16.11° C | 85% | 1012.1 hPa | 0 mm | - | - | - |
| 1777259733 | 16.11° C | 86% | 1012.1 hPa | 0 mm | - | - | - |
| 1777258826 | 16.67° C | 86% | 1012.1 hPa | 0 mm | - | - | - |
| 1777257920 | 16.67° C | 85% | 1011.9 hPa | 0 mm | - | - | - |
| 1777257019 | 17.22° C | 81% | 1011.6 hPa | 0 mm | - | - | - |
| 1777256122 | 17.78° C | 80% | 1011.6 hPa | 0 mm | - | - | - |
| 1777255225 | 17.78° C | 79% | 1011.7 hPa | 0 mm | - | - | - |
| 1777254318 | 18.33° C | 77% | 1011.5 hPa | 0 mm | - | - | - |
| 1777253436 | 18.89° C | 77% | 1011.3 hPa | 0 mm | - | - | - |
| 1777252517 | 18.89° C | 76% | 1011.1 hPa | 0 mm | - | - | - |
| 1777251617 | 19.44° C | 73% | 1011 hPa | 0 mm | - | - | - |
| 1777250715 | 20° C | 71% | 1010.6 hPa | 0 mm | - | - | - |
| 1777249818 | 21.11° C | 70% | 1010.4 hPa | 0 mm | - | - | - |
| 1777248915 | 21.67° C | 67% | 1010.2 hPa | 0 mm | - | - | - |
* Rain latest hour (hover to see other rain measurements)
** Current wind speed in m/s (hover to see current wind gust speed)